Location: Ambillou
(47.2624°N, 0.3447°W)
Time: 06:25:47
(UTC+00:00)

Daily predictions for brighter satellites

Satellite Brightness Start Highest point End
(mag) Time Altitude Azimuth Time Altitude Azimuth Time Altitude Azimuth
In-Cosmos 22 4.2 18:03:15 10° NNW 18:08:34 82° W 18:13:51 10° S
USA 215 3.6 18:03:27 10° NE 18:09:58 71° NNW 18:16:27 10° WSW
Tsikada Rocket 4.3 18:05:23 10° S 18:11:48 81° W 18:18:15 10° N
SL-4 R/B 2.8 18:08:51 10° WNW 18:13:07 49° N 18:17:38 10° E
ARGOS Delta rocket 4.4 18:10:49 10° NNE 18:15:56 44° E 18:20:45 10° SSE
Timation 2 Rocket 4.4 18:11:26 10° NNW 18:17:41 45° NE 18:23:38 10° SE
SAR-Lupe-3 4.5 18:14:27 10° SSE 18:17:59 74° ENE 18:21:34 10° N
SKYMED 3 4.4 18:14:08 10° NNE 18:18:16 71° ESE 18:22:21 10° S
BREEZE-M DEB (TANK) 4.1 18:16:20 10° SW 18:20:30 53° SE 18:35:47 10° ENE
Okean O Rocket 2.1 18:17:55 10° SE 18:21:59 40° ENE 18:26:05 10° N
Cosmos 2219 3.7 18:19:02 10° NNW 18:24:46 69° WSW 18:30:28 10° SSE
Cosmos 1242 Rocket 2.6 18:23:51 10° S 18:27:19 53° E 18:30:49 10° NNE
BREEZE M DEB (TANK) 4.3 18:23:20 10° SSW 18:28:43 19° SSE 18:31:25 11° ESE
Spot 1 3.9 18:25:07 10° NNE 18:29:23 67° ESE 18:33:28 10° S
SL-14 R/B 3.6 18:27:09 10° N 18:30:58 44° ENE 18:34:47 10° SSE
Cosmos 2263 Rocket 2.5 18:26:38 10° NNW 18:32:10 49° NE 18:37:40 10° SE
Cosmos 2360 4.4 18:28:15 10° SSW 18:33:59 82° WNW 18:39:45 10° NNE
Cosmos 1805 3.3 18:30:23 10° S 18:34:09 54° E 18:37:57 10° NNE
Cosmos 1674 Rocket 3.9 18:31:13 10° N 18:35:26 44° ENE 18:39:40 10° SSE
YAOGAN 1 2.5 18:31:29 10° SSE 18:35:46 65° ENE 18:40:03 10° N
Cosmos 1726 2.6 18:34:31 10° SSE 18:37:51 35° E 18:41:13 10° NNE
COBE Rocket 3.8 18:33:09 10° SSE 18:38:02 76° ENE 18:42:49 10° N
SKYMED 2 4.2 18:34:07 10° N 18:38:26 61° WNW 18:42:42 10° SSW
OBJECT-B 1.9 18:38:57 16° ENE 18:39:11 17° ENE 18:40:57 10° NNE
Cosmos 2082 3.8 18:37:55 10° NNW 18:43:42 87° WSW 18:49:26 10° SSE
Cosmos 1674 4.1 18:40:28 10° NNW 18:44:01 41° W 18:47:32 10° SSW
USA 267 4.1 18:39:49 10° SSE 18:46:08 49° SW 18:52:28 10° WNW
Cosmos 1766 3.7 18:44:30 10° SSE 18:48:07 37° E 18:51:47 10° NNE
Cosmos 1697 Rocket 3.3 18:46:22 10° SW 18:51:54 60° WNW 18:57:30 10° NNE
Cosmos 2279 Rocket 4.3 18:50:42 10° NNW 18:56:56 73° W 19:03:10 10° S
Cosmos 2221 Rocket 3.7 18:53:25 10° N 18:57:58 82° W 19:02:30 10° S
Cosmos 1975 Rocket 4.3 18:56:49 10° NNE 19:00:14 21° ENE 19:00:50 21° E
ASTEX 1 4.1 18:55:52 10° N 19:00:46 59° W 19:05:39 10° SSW
IGS 5A 4.1 18:59:48 21° ESE 19:01:51 34° ENE 19:05:37 10° N
Cosmos 1378 Rocket 3.5 19:00:16 10° N 19:04:42 87° E 19:09:03 10° S
Resurs 01 Rocket 3.3 19:05:25 16° ENE 19:05:30 16° ENE 19:08:16 10° NNE
Cosmos 1733 4.0 19:04:37 10° SSW 19:08:18 52° WNW 19:11:59 10° N
Cosmos 968 Rocket 4.1 19:04:30 10° SSE 19:09:10 34° ESE 19:13:52 10° NE
Cosmos 1470 3.8 19:15:56 27° ENE 19:15:56 27° ENE 19:18:25 10° NNE
Cosmos 1733 Rocket 4.0 19:11:11 10° SSW 19:15:30 52° WNW 19:19:53 10° N
Meteor 2-14 Rocket 4.4 19:11:16 10° S 19:17:21 86° W 19:23:27 10° N
Cosmos 2084 4.2 19:18:07 10° WSW 19:21:48 45° NW 19:25:29 10° NNE
ISS -3.6 19:18:38 10° WNW 19:21:59 68° SSW 19:22:45 47° SE
CZ-4B R/B 4.3 19:17:38 10° S 19:22:44 45° W 19:27:59 10° NNW
Cosmos 2322 Rocket 4.0 19:18:53 10° SSE 19:27:51 12° NE 19:28:17 10° NE
Cosmos 841 Rocket 4.2 19:20:15 10° NNW 19:25:17 52° WSW 19:30:15 10° S
CSL-04 Rocket 3.6 19:21:40 19° SSE 19:25:33 65° ENE 19:30:54 10° N
Okean-O 2.7 19:24:10 31° SE 19:26:06 58° ENE 19:30:27 10° N
Cosmos 1850 Rocket 4.5 19:22:02 10° SSW 19:27:11 63° WNW 19:32:26 10° NNE
Resurs 1-3 3.8 19:26:17 38° ESE 19:27:23 47° ENE 19:31:36 10° N
CZ-4 R/B 2.3 19:23:24 10° S 19:27:26 50° W 19:31:32 10° NNW
Gbstr 26 Del rocket 4.4 19:20:51 10° SW 19:28:28 75° SSE 19:34:42 19° ENE
SJ-6B 2.5 19:30:23 43° SSE 19:31:30 75° ENE 19:35:16 10° N
Cosmos 1980 Rocket 2.8 19:26:37 10° SW 19:32:10 57° WNW 19:37:43 10° NNE
Cosmos 1570 Rocket 3.9 19:27:19 10° NNW 19:32:35 67° ENE 19:34:49 34° SE
Meteor 1-12 Rocket 4.3 19:28:21 10° S 19:34:20 88° E 19:40:25 10° NNE
Meteor 2-21 Rocket 4.4 19:28:32 10° S 19:34:35 90° ESE 19:40:41 10° N
Cosmos 1627 Rocket 4.5 19:31:37 10° SSE 19:37:33 56° E 19:43:31 10° NNE
JB-3 4.4 19:34:49 10° NNE 19:38:37 55° E 19:38:37 55° E
USA 186 1.9 19:40:04 58° SSW 19:40:34 73° W 19:43:55 10° NNW
deb Chang Zheng 4 3.9 19:41:18 43° NE 19:41:18 43° NE 19:44:55 10° N
Cosmos 1428 Rocket 4.4 19:38:50 10° S 19:44:56 70° E 19:51:09 10° NNE
Cosmos 2195 Rocket 4.4 19:38:55 10° S 19:45:05 74° E 19:51:23 10° NNE
Cosmos 489 Rocket 4.5 19:38:46 10° SSW 19:45:08 85° WNW 19:51:31 10° NNE
Cosmos 2278 3.8 19:41:45 10° SSW 19:47:27 76° WNW 19:53:10 10° NNE
Cosmos 1437 Rocket 2.6 19:45:17 10° SSW 19:49:02 79° WNW 19:52:48 10° N
Meteor 1-24 Rocket 3.4 19:44:00 10° N 19:49:20 79° ENE 19:51:25 38° SSE
SL-16 R/B 2.1 19:45:09 10° S 19:50:42 59° ESE 19:56:17 10° NNE
Meteor 2-16 Rocket 4.5 19:45:32 10° SSW 19:51:40 80° W 19:57:51 10° N
USA 215 4.2 19:47:18 14° NE 19:52:27 41° N 19:58:28 10° WNW
SL-4 R/B 2.1 19:48:22 10° WNW 19:52:56 87° SSW 19:53:27 70° SE
Cosmos 2208 Rocket 3.9 19:50:34 10° NNW 19:55:58 82° ENE 19:57:21 52° SSE
Okean O Rocket 3.9 19:55:02 10° SW 19:58:28 23° W 20:01:57 10° NW
Cosmos 1844 Rocket 2.9 19:53:13 10° NNW 19:58:46 51° ENE 19:59:16 49° ENE
Cosmos 1908 Rocket 4.4 19:55:39 10° SSW 19:59:51 49° WNW 20:04:05 10° N
Meteor 1-22 Rocket 4.0 19:54:57 10° S 20:00:19 90° ENE 20:05:56 10° NNE
Cosmos 2285 Rocket 4.4 19:55:19 10° NNW 20:01:35 63° WSW 20:05:47 22° S
USA 81 3.9 19:56:52 10° N 20:02:11 87° E 20:03:45 47° S
Landsat 5 4.2 19:58:01 10° N 20:02:28 59° WNW 20:06:50 10° SSW
Cosmos 2278 Rocket 4.3 19:59:58 10° N 20:02:29 13° NNE 20:03:03 13° NE
Cosmos 2026 Rocket 3.8 19:56:31 10° S 20:02:34 84° E 20:08:40 10° N
Cosmos 1782 Rocket 3.6 20:06:54 66° SW 20:07:24 77° W 20:11:47 10° N
Cosmos 1553 Rocket 4.0 20:02:34 10° N 20:08:52 62° ENE 20:09:43 57° ESE
MOS 1 4.2 20:08:42 62° E 20:09:07 64° ENE 20:14:44 10° N
OBJECT-B 3.4 20:09:47 16° WNW 20:09:47 16° WNW 20:10:58 10° NW
H-2A R/B 3.3 20:15:56 41° NNW 20:15:56 41° NNW 20:18:33 10° NNW
Cosmos 2263 Rocket 3.9 20:10:58 10° NW 20:15:51 30° WSW 20:20:24 11° SSW
USA 281 4.1 20:16:22 32° NE 20:16:43 32° NE 20:22:22 10° N
Cosmos 1844 3.7 20:14:53 10° NNW 20:20:06 61° NE 20:20:06 61° NE
Meteor 2-5 Rocket 4.4 20:15:34 10° NNW 20:20:56 51° W 20:23:46 26° SSW
Cosmos 1025 Rocket 3.8 20:24:33 10° NNW 20:28:10 50° WNW 20:28:10 50° WNW
SPOT 1/Viking Rocket 3.6 20:32:06 72° NNW 20:32:06 72° NNW 20:36:44 10° NNW
Cosmos 1975 Rocket 4.2 20:34:06 10° NNW 20:37:59 41° W 20:37:59 41° W
Resurs 01 Rocket 2.8 20:42:59 39° NW 20:42:59 39° NW 20:45:56 10° NNW
Ariane Rocket 4.2 21:05:27 39° NNW 21:05:27 39° NNW 21:08:41 10° NNW
Terra 4.1 21:07:10 17° N 21:07:10 17° N 21:08:24 10° N
Cosmos 2322 Rocket 3.5 21:01:42 10° SW 21:09:30 34° N 21:12:53 10° NNE
ATLAS 2AS CENTAUR R/B 4.2 21:01:43 10° NW 21:07:37 25° NNE 21:09:00 24° NE
NOSS 3-4 (A) 4.2 21:12:49 10° NW 21:18:30 52° NNE 21:18:30 52° NNE
NOSS 3-4 (C) 4.3 21:12:56 10° NW 21:18:36 52° NNE 21:18:36 52° NNE
USA 215 4.1 21:34:39 41° N 21:34:39 41° N 21:40:40 10° WNW
SL-16 R/B 4.0 21:30:22 10° WSW 21:35:12 28° NW 21:40:03 10° N
Cosmos 2278 Rocket 4.1 21:42:30 10° NNW 21:44:53 25° N 21:44:53 25° N
USA 281 4.3 22:03:15 40° NW 22:03:15 40° NW 22:07:22 10° NNW
ATLAS 2AS CENTAUR R/B 4.3 22:53:02 10° NW 22:56:24 29° NNW 22:56:24 29° NNW
